Location: Boulder, CO
(40.0083°N, 105.2472°W)
Time: 21:05:59
(UTC-07:00)

SORCE - Visible Passes

Search period start: 31 January 2015 00:00
Search period end: 10 February 2015 00:00
Orbit: 590 x 624 km, 40.0° (Epoch: 30 January)

Date Brightness Start Highest point End Pass type
(mag) Time Alt. Az. Time Alt. Az. Time Alt. Az.
31 Jan 7.8 04:24:09 31° E 04:24:09 31° E 04:26:34 10° E visible
31 Jan 6.1 06:00:57 21° W 06:03:59 76° SSW 06:08:35 10° ESE visible
01 Feb 7.2 04:36:05 42° E 04:36:05 42° E 04:39:11 10° E visible
01 Feb 6.4 06:12:53 15° W 06:16:32 58° SSW 06:21:03 10° ESE visible
02 Feb 6.5 04:48:01 59° ESE 04:48:01 59° ESE 04:51:47 10° E visible
02 Feb 6.9 06:24:49 11° W 06:29:00 40° SSW 06:33:18 10° SE visible
03 Feb 6.1 04:59:59 68° SSE 04:59:59 68° SSE 05:04:19 10° ESE visible
03 Feb 7.5 06:37:32 10° W 06:41:24 26° SSW 06:45:13 10° SSE visible
04 Feb 6.3 05:11:59 51° SSW 05:12:15 52° SSW 05:16:44 10° SE visible
05 Feb 9.1 03:47:14 12° ESE 03:47:14 12° ESE 03:47:31 10° ESE visible
05 Feb 6.8 05:24:02 33° SW 05:24:41 35° SSW 05:28:52 10° SE visible
06 Feb 8.8 03:59:20 14° ESE 03:59:20 14° ESE 04:00:00 10° ESE visible
06 Feb 7.5 05:36:09 21° SW 05:37:03 23° SSW 05:40:36 10° SSE visible
07 Feb 8.6 04:11:31 15° SE 04:11:31 15° SE 04:12:19 10° SE visible
07 Feb 8.1 05:48:20 13° SW 05:49:19 13° SW 05:51:29 10° S visible
08 Feb 8.6 04:23:45 13° SSE 04:23:45 13° SSE 04:24:20 10° SSE visible
